Regional Weather Roundup
Issued by NWS

Home | Current Version | Previous Version | Text Only | Print | Product List | Glossary Off
Versions: 1 2 3 4 5 6 7 8 9 10 11 12 13 14 15 16 17 18 19 20 21 22 23 24 25 26 27 28 29 30 31 32 33 34 35 36 37 38 39 40 41 42 43 44 45 46 47 48 49 50

226
ASUS45 KBOU 241707
RWRCO

WEATHER ROUNDUP FOR COLORADO
NATIONAL WEATHER SERVICE DENVER/BOULDER CO
1100 AM MDT WED MAY 24 2017

NOTE: "FAIR" INDICATES FEW OR NO CLOUDS BELOW 12000 FEET WITH NO
SIGNIFICANT WEATHER AND/OR OBSTRUCTIONS TO VISIBILITY.

COZ001>005-013-030-031-241800-
...NORTHWEST COLORADO...

CITY           SKY/WX    TMP DP  RH WIND       PRES   REMARKS
CRAIG          FAIR      67  39  35 CALM      29.91F
HAYDEN         FAIR      63  36  36 CALM      29.93F
MEEKER         FAIR      68  34  28 VRB3      29.93F
RABBIT EARS PA FAIR      43  34  70 W9G20     30.13F
STEAMBOAT SPGS FAIR      60  36  40 S3        29.94F
WALDEN           N/A     59  32  36 SW18G24   29.98F
$$

COZ006>008-011-241800-
...WEST CENTRAL VALLEYS...

CITY           SKY/WX    TMP DP  RH WIND       PRES   REMARKS
GRAND JUNCTION FAIR      70  33  25 SE9       29.91F
MONTROSE       FAIR      68  37  32 N6        29.98F
EAGLE          SUNNY     64  34  32 VRB5      29.98
RIFLE          FAIR      66  32  28 N5        29.94F
DELTA          FAIR      71  29  20 NE3       29.95F
NUCLA          FAIR      70  32  24 SE3       30.03F
$$

COZ017>023-064>068-241800-
...SOUTHWEST COLORADO...

CITY           SKY/WX    TMP DP  RH WIND       PRES   REMARKS
DURANGO        FAIR      69  33  26 SW8       30.02F
CORTEZ         FAIR      72  36  26 VRB5      30.01F
PAGOSA SPRINGS FAIR      62  20  20 SW5       30.09F
TELLURIDE      FAIR      61  28  29 W6        30.18F
WOLF CREEK PAS FAIR      43  21  42 W9        30.35S
$$

COZ009-010-012-014-032>034-037-058>063-241800-
...CENTRAL COLORADO...

CITY           SKY/WX    TMP DP  RH WIND       PRES   REMARKS
ASPEN          FAIR      62  32  32 NE8       30.01F
BUENA VISTA    FAIR      64  24  21 W10G24    30.01F
COPPER MTN     FAIR      45  28  53 W31G37    30.20F
BERTHOUD PASS  FAIR      34  25  69 MISG      30.14F HAZE
COTTONWOOD PAS FAIR      59  21  23 NW6       30.11F
GUNNISON       FAIR      58  31  35 VRB3      30.06F
KREMMLING      FAIR      68  34  28 SW9       29.97F
LEADVILLE      FAIR      53  26  35 NW10G18   30.11F
MONARCH PASS   FAIR      41  28  60 SW26G39   30.34F
SALIDA         FAIR      69  27  20 W16G26    30.07F
SUNLIGHT       FAIR      46  27  46 SW9       30.22F
WILKERSON PASS FAIR      46  25  42 SW10G24   30.17F
$$

COZ069>075-241800-
...SAN LUIS VALLEY/SANGRE DE CRISTO MOUNTAINS...

CITY           SKY/WX    TMP DP  RH WIND       PRES   REMARKS
ALAMOSA        FAIR      62  25  24 VRB6      30.03F
DEL NORTE      FAIR      60  29  31 E9        30.06F
LA VETA PASS   FAIR      52  28  40 MISG      30.22S
SAGUACHE       FAIR      68  27  21 N17G25    30.04F
$$

COZ035-036-038>040-241800-
...NORTHERN COLORADO FRONT RANGE...

CITY           SKY/WX    TMP DP  RH WIND       PRES   REMARKS
DENVER INTL AP FAIR      74  36  25 W17G26    29.76F
DMNS CITY PARK   N/A     74  33  22 NW7G15    29.76F
AURORA         MOSUNNY   73  34  24 SW8       29.78F
FRONT RANGE AP MOSUNNY   75  37  25 W6        29.78F
ERIE MUNI ARPT FAIR      70  41  34 CALM      29.75F
BOULDER MUN AP FAIR      66  43  42 N6        29.75F
CENTENNIAL     FAIR      72  34  24 W10       29.79F
BROOMFIELD     MOSUNNY   73  36  25 W25G32    29.78F
FORT COLLINS   FAIR      63  42  46 SE8       29.76F
LONGMONT       FAIR      69  42  38 E5        29.76F
$$

COZ041-046-047-076>085-087-088-241800-
...PIKES PEAK/PALMER DIVIDE AND SOUTHERN FOOTHILLS...

CITY           SKY/WX    TMP DP  RH WIND       PRES   REMARKS
COLO. SPRINGS  FAIR      66  36  32 SE10      29.86F
A. F. ACADEMY  FAIR      69  35  28 S20       29.84F
SCHRIEVER AFB  FAIR      65  34  32 S9        29.87F
CHEYENNE MTN   FAIR      66  36  33 E7        29.85F
ELLICOTT       FAIR     N/A N/A N/A SW9       29.85F
FALCON         FAIR      68  32  26 S6        29.90S
FORT CARSON    FAIR      65  39  38 SE7       29.84F
LIMON          FAIR      69  35  28 SE6G16    29.80F
MONUMENT HILL  FAIR      66  34  30 W12G18    29.89F
CANON CITY     NOT AVBL
WALSENBURG     FAIR      73  36  25 W24G35    29.86F
TRINIDAD       FAIR      72  30  21 VRB5      29.87F
$$

COZ042>045-048>051-090-091-241800-
...NORTHEAST COLORADO...

CITY           SKY/WX    TMP DP  RH WIND       PRES   REMARKS
GREELEY ARPT   FAIR      65  44  46 SE9       29.75F
AKRON          FAIR      66  38  35 VRB3      29.76F
BURLINGTON     FAIR      64  44  48 S12       29.80F
WRAY           FAIR      63  37  39 S12G17    29.77F
YUMA           FAIR      63  30  29 S10G17    29.76F
STERLING       FAIR      64  43  45 S9        29.72F
HOLYOKE        NOT AVBL
FORT MORGAN    FAIR      65  39  37 SW3       29.76F
$$

COZ086-089-092>099-241800-
...SOUTHEAST COLORADO...

CITY           SKY/WX    TMP DP  RH WIND       PRES   REMARKS
PUEBLO         FAIR      67  40  37 CALM      29.80F
LA JUNTA       FAIR      66  42  41 S5        29.81F
LAMAR          FAIR      68  40  35 VRB7      29.78F
SPRINGFIELD      N/A     67  36  31 VRB5      29.82F
$$




USA.gov is the U.S. government's official web portal to all federal, state and local government web resources and services.